DW0000 Weather Reports


Display with metric or nautical units.
time (UTC)temp
F
wind
direction
speed
MPH
gust
MPH
rain 1hr
in
rain 24hr
in
rain mn
in
humidity
%
barometer
mb
20220527151521 46 119 5.0 7.0 0.00 0.01 0.00 82 1028.9
20220527150521 46 112 4.0 6.0 0.00 0.01 0.00 82 1029.0
20220527144521 47 107 5.0 7.0 0.00 0.01 0.00 82 1028.9
20220527144021 47 111 5.0 6.0 0.00 0.01 0.00 82 1029.0
20220527143022 47 111 6.0 8.0 0.00 0.01 0.00 81 1029.0
20220527142022 47 114 5.0 7.0 0.00 0.01 0.00 82 1028.9
20220527141522 47 119 5.0 8.0 0.00 0.01 0.00 82 1028.9
20220527141022 47 117 5.0 8.0 0.00 0.01 0.00 81 1028.9
20220527140521 47 111 6.0 8.0 0.00 0.01 0.00 81 1028.9
20220527140022 47 108 6.0 7.0 0.00 0.01 0.00 81 1028.8
20220527135021 47 104 7.0 7.0 0.00 0.01 0.00 81 1028.7
20220527134522 47 103 6.0 7.0 0.00 0.01 0.00 81 1028.7
20220527134022 47 108 6.0 7.0 0.00 0.01 0.00 81 1028.7
20220527133023 47 109 5.0 6.0 0.00 0.01 0.00 80 1028.7
20220527132521 47 109 7.0 7.0 0.00 0.01 0.00 80 1028.8
20220527132022 47 107 7.0 8.0 0.00 0.01 0.00 81 1028.9
20220527131521 47 106 7.0 7.0 0.00 0.01 0.00 81 1028.9
20220527130521 47 106 7.0 8.0 0.00 0.01 0.00 81 1028.9
20220527125521 47 104 7.0 8.0 0.00 0.01 0.00 81 1028.9
20220527125022 47 105 7.0 8.0 0.00 0.01 0.00 81 1029.0
20220527124021 47 107 7.0 9.0 0.00 0.01 0.00 80 1029.0
20220527123521 47 103 8.0 8.0 0.00 0.01 0.00 80 1029.0
20220527122022 47 101 7.0 8.0 0.00 0.01 0.00 80 1029.1
20220527121521 47 101 7.0 8.0 0.00 0.01 0.00 80 1029.1
20220527120521 47 100 7.0 8.0 0.00 0.01 0.00 80 1029.1
20220527115521 47 108 7.0 8.0 0.00 0.01 0.01 79 1029.1
20220527114022 47 112 5.0 7.0 0.00 0.01 0.01 79 1029.2
20220527113521 48 114 4.0 6.0 0.00 0.01 0.01 79 1029.3
20220527112521 48 114 5.0 8.0 0.00 0.01 0.01 78 1029.4
20220527111521 48 111 5.0 7.0 0.00 0.01 0.01 78 1029.4
20220527110521 48 121 5.0 7.0 0.00 0.01 0.01 79 1029.3
20220527110022 47 120 5.0 7.0 0.00 0.01 0.01 79 1029.3
20220527105022 48 120 5.0 7.0 0.00 0.01 0.01 79 1029.6
20220527104521 48 123 3.0 6.0 0.00 0.01 0.01 79 1029.5
20220527104022 48 115 4.0 6.0 0.00 0.01 0.01 78 1029.5
20220527103022 48 115 5.0 7.0 0.00 0.01 0.01 78 1029.6
20220527102521 48 116 3.0 6.0 0.00 0.01 0.01 78 1029.5
20220527102021 48 113 5.0 7.0 0.00 0.01 0.01 77 1029.5
20220527101520 48 110 6.0 7.0 0.00 0.01 0.01 77 1029.5
20220527101022 48 108 6.0 7.0 0.00 0.01 0.01 77 1029.5
20220527100521 48 105 6.0 7.0 0.00 0.01 0.01 77 1029.5
20220527095520 48 104 6.0 7.0 0.00 0.01 0.01 77 1029.5
20220527095022 48 96 5.0 6.0 0.00 0.01 0.01 76 1029.5
20220527094520 49 108 5.0 7.0 0.00 0.01 0.01 76 1029.5
20220527094021 49 105 6.0 7.0 0.00 0.01 0.01 76 1029.4
20220527093521 49 95 4.0 6.0 0.00 0.01 0.01 76 1029.4
20220527093022 49 100 5.0 7.0 0.00 0.01 0.01 77 1029.4
20220527092520 49 99 7.0 8.0 0.00 0.01 0.01 77 1029.5
20220527092022 49 105 7.0 8.0 0.00 0.01 0.01 76 1029.4
20220527085520 49 103 5.0 8.0 0.00 0.01 0.01 77 1029.1
20220527084521 49 109 7.0 9.0 0.00 0.01 0.01 77 1029.0
20220527083023 50 107 5.0 8.0 0.00 0.01 0.01 78 1029.0
20220527082022 50 103 5.0 7.0 0.00 0.01 0.01 79 1029.0
20220527080521 50 105 6.0 8.0 0.00 0.01 0.01 79 1028.9
20220527080022 50 102 7.0 8.0 0.00 0.01 0.01 79 1029.0
20220527075021 50 101 6.0 9.0 0.00 0.01 0.01 79 1028.9
20220527074520 50 104 7.0 9.0 0.00 0.01 0.01 79 1029.0
20220527072520 51 105 5.0 8.0 0.00 0.01 0.01 79 1028.8
20220527072021 51 104 6.0 9.0 0.00 0.01 0.01 79 1028.8
20220527071521 51 96 6.0 8.0 0.00 0.01 0.01 79 1028.7
20220527071021 51 98 5.0 8.0 0.00 0.01 0.01 79 1028.8
20220527070521 51 101 7.0 9.0 0.00 0.01 0.01 79 1028.7
20220527070022 51 100 7.0 9.0 0.00 0.01 0.01 79 1028.6
20220527064521 52 104 6.0 7.0 0.00 0.01 0.01 78 1028.4
20220527064021 52 101 5.0 6.0 0.00 0.01 0.01 77 1028.4
20220527063022 52 103 5.0 7.0 0.00 0.01 0.01 76 1028.3
20220527062520 52 99 6.0 7.0 0.00 0.01 0.01 76 1028.2
20220527061521 52 96 6.0 7.0 0.00 0.01 0.01 76 1028.2
20220527060521 53 102 4.0 7.0 0.00 0.01 0.01 76 1028.1
20220527060021 53 101 6.0 7.0 0.00 0.01 0.01 76 1028.0
20220527055524 53 95 5.0 7.0 0.00 0.01 0.01 76 1027.9
20220527053521 53 99 2.0 3.0 0.00 0.01 0.01 76 1027.8
20220527051520 54 109 2.0 3.0 0.00 0.01 0.01 74 1027.6
20220527045521 56 107 2.0 6.0 0.00 0.01 0.01 71 1027.4
20220527045022 56 105 3.0 7.0 0.00 0.01 0.01 71 1027.4
20220527044021 57 107 3.0 7.0 0.00 0.01 0.01 69 1027.4
20220527043520 57 104 4.0 8.0 0.00 0.01 0.01 69 1027.3
20220527043021 57 107 2.0 7.0 0.00 0.01 0.01 68 1027.3
20220527042520 57 111 2.0 6.0 0.00 0.01 0.01 68 1027.3
20220527042022 58 110 3.0 9.0 0.00 0.01 0.01 68 1027.3
20220527041521 58 96 5.0 7.0 0.00 0.01 0.01 67 1027.3
20220527040021 58 99 3.0 6.0 0.00 0.01 0.01 66 1027.3
20220527035021 58 94 5.0 7.0 0.00 0.01 0.01 64 1027.2
20220527034021 59 96 5.0 8.0 0.00 0.01 0.01 62 1027.2
20220527033520 59 85 4.0 7.0 0.00 0.01 0.01 62 1027.1
20220527033024 59 98 6.0 9.0 0.00 0.01 0.01 61 1027.1
20220527032021 59 94 5.0 9.0 0.00 0.01 0.01 60 1027.2
20220527031520 59 107 5.0 8.0 0.00 0.01 0.01 59 1027.1
20220527031028 59 101 6.0 10.0 0.00 0.01 0.01 60 1027.1
20220527030520 59 94 5.0 7.0 0.00 0.01 0.01 60 1027.2
20220527030021 59 115 5.0 8.0 0.00 0.01 0.01 60 1027.2
20220527025520 59 109 6.0 12.0 0.00 0.01 0.01 59 1027.2
20220527025022 59 99 6.0 10.0 0.00 0.01 0.01 58 1027.2
20220527024521 59 100 5.0 9.0 0.00 0.01 0.01 59 1027.3
20220527024021 59 96 6.0 12.0 0.00 0.01 0.01 59 1027.2
20220527023520 59 105 3.0 9.0 0.00 0.01 0.01 59 1027.2
20220527022520 59 114 6.0 9.0 0.00 0.01 0.01 59 1027.3
20220527022021 59 101 7.0 10.0 0.00 0.01 0.01 59 1027.2
20220527021521 59 100 7.0 10.0 0.00 0.01 0.01 60 1027.2
20220527021021 59 102 5.0 9.0 0.00 0.01 0.01 61 1027.2
20220527020520 59 102 5.0 8.0 0.00 0.01 0.01 60 1027.2
20220527020021 59 115 4.0 7.0 0.00 0.01 0.01 61 1027.3
20220527015520 59 121 4.0 9.0 0.00 0.01 0.01 62 1027.3
20220527015021 59 137 6.0 10.0 0.00 0.01 0.01 62 1027.3
20220527014521 58 113 6.0 12.0 0.00 0.01 0.01 61 1027.3
20220527014021 58 133 4.0 10.0 0.00 0.01 0.01 64 1027.3
20220527013021 58 139 5.0 12.0 0.00 0.01 0.01 64 1027.3
20220527012520 58 94 7.0 12.0 0.00 0.01 0.01 64 1027.3
20220527012021 58 66 6.0 10.0 0.00 0.01 0.01 65 1027.4
20220527011520 58 120 5.0 10.0 0.00 0.01 0.01 66 1027.5
20220527005021 57 99 7.0 10.0 0.00 0.01 0.01 67 1027.6
20220527004520 57 117 7.0 12.0 0.00 0.01 0.01 68 1027.7
20220527004021 57 115 7.0 12.0 0.00 0.01 0.01 68 1027.8
20220527003520 57 98 8.0 10.0 0.00 0.01 0.01 66 1027.9
20220527003021 57 114 5.0 9.0 0.00 0.01 0.01 69 1027.8
20220527001520 56 115 5.0 14.0 0.00 0.01 0.01 70 1028.0
20220527001021 56 131 9.0 12.0 0.00 0.01 0.01 68 1028.0
20220527000520 56 118 6.0 10.0 0.00 0.01 0.01 70 1028.1
20220526235520 56 146 7.0 12.0 0.00 0.01 0.01 69 1028.2
20220526235021 56 131 7.0 12.0 0.00 0.01 0.01 70 1028.2
20220526234520 56 123 6.0 10.0 0.00 0.01 0.01 71 1028.3
20220526233520 55 102 5.0 9.0 0.00 0.01 0.01 71 1028.5
20220526233022 55 117 4.0 8.0 0.00 0.01 0.01 73 1028.6
20220526232520 55 105 5.0 9.0 0.00 0.01 0.01 71 1028.7
20220526232022 55 120 5.0 8.0 0.00 0.01 0.01 73 1028.8
20220526231520 54 110 5.0 10.0 0.00 0.01 0.01 74 1028.9
20220526230520 54 109 5.0 10.0 0.00 0.01 0.01 74 1029.0
20220526225520 54 97 7.0 9.0 0.00 0.01 0.01 74 1029.1
20220526225021 53 102 6.0 12.0 0.00 0.01 0.01 75 1029.1
20220526224520 53 122 6.0 10.0 0.00 0.01 0.01 76 1029.2
20220526224021 53 118 6.0 10.0 0.00 0.01 0.01 76 1029.1
20220526223520 53 99 5.0 9.0 0.00 0.01 0.01 76 1029.1
20220526223021 53 101 5.0 10.0 0.00 0.01 0.01 75 1029.1
20220526222021 52 123 7.0 12.0 0.00 0.01 0.01 76 1029.0
20220526221520 52 116 6.0 10.0 0.00 0.01 0.01 78 1029.0
20220526221021 52 102 6.0 9.0 0.00 0.01 0.01 78 1029.1
20220526215020 51 122 5.0 9.0 0.00 0.01 0.01 78 1029.0
20220526213520 50 123 5.0 8.0 0.00 0.01 0.01 80 1029.0
20220526213021 50 107 6.0 12.0 0.00 0.01 0.01 80 1029.0
20220526212520 49 113 3.0 9.0 0.00 0.01 0.01 81 1029.0
20220526211520 49 112 6.0 10.0 0.00 0.01 0.01 82 1028.9
20220526211020 48 102 4.0 8.0 0.00 0.01 0.01 83 1028.9
20220526210020 47 110 4.0 8.0 0.00 0.01 0.01 85 1028.8
20220526205520 46 127 5.0 8.0 0.00 0.01 0.01 85 1028.8
20220526205021 46 106 7.0 12.0 0.00 0.01 0.01 85 1028.8
20220526204520 46 108 6.0 9.0 0.00 0.01 0.01 86 1028.7
20220526204021 46 108 7.0 12.0 0.00 0.01 0.01 86 1028.7
20220526203520 45 106 6.0 8.0 0.00 0.01 0.01 87 1028.7
20220526203021 45 111 5.0 8.0 0.00 0.01 0.01 87 1028.6
20220526202519 45 111 4.0 8.0 0.00 0.01 0.01 87 1028.6
20220526201520 45 119 5.0 7.0 0.00 0.01 0.01 87 1028.5
20220526200520 45 104 6.0 8.0 0.00 0.01 0.01 87 1028.4
20220526195519 45 104 6.0 8.0 0.00 0.01 0.01 87 1028.3
20220526194020 45 104 5.0 8.0 0.00 0.01 0.01 88 1028.1
20220526193021 45 108 4.0 8.0 0.00 0.01 0.01 88 1028.0
20220526192520 45 113 5.0 9.0 0.00 0.01 0.01 88 1027.9
20220526191519 45 118 5.0 8.0 0.00 0.01 0.01 89 1027.8
20220526190519 45 119 3.0 6.0 0.00 0.01 0.01 89 1027.5
20220526190021 45 112 3.0 8.0 0.00 0.01 0.01 89 1027.5
20220526185020 45 100 2.0 7.0 0.00 0.01 0.01 89 1027.4
20220526184021 45 113 5.0 8.0 0.00 0.01 0.01 89 1027.3
20220526183520 45 106 6.0 10.0 0.00 0.01 0.01 89 1027.3
20220526182519 45 101 4.0 9.0 0.00 0.01 0.01 90 1027.2
20220526182020 45 114 4.0 9.0 0.00 0.01 0.01 90 1027.1
20220526180520 46 103 8.0 10.0 0.00 0.01 0.01 90 1027.0
20220526180020 46 105 7.0 10.0 0.00 0.01 0.01 90 1026.9
20220526175020 46 109 8.0 10.0 0.00 0.01 0.01 90 1027.0
20220526174520 46 107 7.0 10.0 0.00 0.01 0.01 90 1027.0
20220526172519 46 103 7.0 12.0 0.00 0.01 0.01 90 1026.7
20220526171519 46 103 7.0 12.0 0.00 0.01 0.01 91 1026.7
20220526171020 46 105 7.0 10.0 0.00 0.01 0.01 91 1026.7
20220526170519 46 104 8.0 12.0 0.00 0.01 0.01 91 1026.6
20220526170020 47 100 7.0 9.0 0.00 0.01 0.01 91 1026.6
20220526165519 46 106 7.0 10.0 0.00 0.01 0.01 91 1026.5
20220526164519 47 101 8.0 12.0 0.00 0.01 0.01 91 1026.6
20220526164020 47 98 6.0 12.0 0.00 0.01 0.01 92 1026.6
20220526162519 47 107 6.0 9.0 0.01 0.01 0.01 92 1026.5
20220526162020 47 103 5.0 8.0 0.01 0.01 0.01 91 1026.5
20220526161020 47 107 6.0 8.0 0.01 0.01 0.01 91 1026.3
20220526160021 47 108 6.0 9.0 0.01 0.02 0.01 91 1026.3
20220526155519 47 108 7.0 10.0 0.01 0.02 0.01 91 1026.3
20220526154020 48 108 6.0 10.0 0.01 0.02 0.01 91 1026.5
20220526153520 48 107 6.0 9.0 0.00 0.01 0.00 91 1026.5
20220526153021 48 108 5.0 8.0 0.00 0.01 0.00 91 1026.6
20220526152020 48 112 6.0 9.0 0.00 0.01 0.00 91 1026.6